Terminal Aerodrome Forecast
Issued by NWS

Home | Current Version | Previous Version | Text Only | Print | Product List | Glossary On
Versions: 1 2 3 4 5 6 7 8 9 10 11 12 13
000
FTUS45 KVEF 160500
TAFHND
TAF
KHND 160521Z 1606/1706 17009KT P6SM SKC
     FM160900 VRB05KT P6SM SKC
     FM161700 10008KT P6SM FEW110
     FM162100 17010G16KT P6SM FEW110=

USA.gov is the U.S. government's official web portal to all federal, state and local government web resources and services.